EHI
0 0 0 0 0 0 0 0 0 0 0 0 0 0 0 0 0 0 0 0 0 0 0 0 0 0 0 0 0 0 0 0 0 0 0 0 0 0 0 0 0 0 0 0
0 0 0 0 0 0 0 0 0 0 0 0 0 0 0 0 0 0 0 0 0 0 0 0 0 0 0 0 0 0 0 0 0 0 0 0 0 0 0 0 0 0 0 0
0 0 0 0 0 0 0 0 0 0 0 0 0 0 0 0 0 0 0 0 0 0 0 0 0 0 0 0 0 0 0 0 0 0 0 0 0 0 0 0 0 0 0 0
0 0 0 0 0 0 0 0 0 0 0 0 0 0 0 0 0 0 0 0 0 0 0 0 0 0 0 0 0 0 0 0 0 0 0 0 0 0 0 0 0 0 0 0
0 0 0 0 0 0 0 0 0 0 0 0 0 0 0 0 0 0 0 0 0 0 0 0 0 0 0 0 0 0 0 0 0 0 0 0 0 0 0 0 0 0 0 0
0 0 0 0 0 0 0 0 0 0 0 0 0 0 0 0 0 0 0 0 0 0 0 0 0 0 0 0 0 0 0 0 0 0 0 0 0 0 0 0 0 0 0 0
0 0 0 0 0 0 0 0 0 0 0 0 0 0 0 0 0 0 0 0 0 0 0 0 0 0 0 0 0 0 0 0 0 0 0 0 0 0 0 0 0 0 0 0
0 0 0 0 0 0 0 0 0 0 0 0 0 0 0 0 0 0 0 0 0 0 0 0 0 0 0 0 0 0 0 0 0 0 0 0 0 0 0 0 0 0 0 0
0 0 0 0 0 0 0 0 0 0 0 0 0 0 0 0 0 0 0 0 0 0 0 0 0 0 0 0 0 0 0 0 0 0 0 0 0 0 0 0 0 0 0 0
0 0 0 0 0 0 0 0 0 0 0 0 0 0 0 0 0 0 0 0 0 0 0 0 0 0 0 0 0 0 0 0 0 0 0 0 0 0 0 0 0 0 0 0
0 0 0 0 0 0 0 0 0 0 0 0 0 0 0 0 0 0 0 0 0 0 0 0 0 0 0 0 0 0 0 0 0 0 0 0 0 0 0 0 0 0 0 0
0 0 0 0 0 0 0 0 0 0 0 0 0 0 0 0 0 0 0 0 0 0 0 0 0 0 0 0 0 0 0 0 0 0 0 0 0 0 0 0 0 0 0 0
0 0 0 0 0 0 0 0 0 0 0 0 0 0 0 0 0 0 0 0 0 0 0 0 0 0 0 0 0 0 0 0 0 0 0 0 0 0 0 0 0 0 0 0
0 0 0 0 0 0 0 0 0 0 0 0 0 0 0 0 0 0 0 0 0 0 0 0 0 0 0 0 0 0 0 0 0 0 0 0 0 0 0 0 0 0 0 0
0 0 0 0 0 0 0 0 0 0 0 0 0 0 0 0 0 0 0 0 0 0 0 0 0 0 0 0 0 0 0 0 0 0 0 0 0 0 0 0 0 0 0 0
0 0 0 0 0 0 0 0 0 0 0 0 0 0 0 0 0 0 0 0 0 0 0 0 0 0 0 0 0 0 0 0 0 0 0 0 0 0 0 0 0 0 0 0
0 0 0 0 0 0 0 0 0 0 0 0 0 0 0 0 0 0 0 0 0 0 0 0 0 0 0 0 0 0 0 0 0 0 0 0 0 0 0 0 0 0 0 0
0 0 0 0 0 0 0 0 0 0 0 0 0 0 0 0 0 0 0 0 0 0 0 0 0 0 0 0 0 0 0 0 0 0 0 0 0 0 0 0 0 0 0 0
0 0 0 0 0 0 0 0 0 0 0 0 0 0 0 0 0 0 0 0 0 0 0 0 0 0 0 0 0 0 0 0 0 0 0 0 0 0 0 0 0 0 0 0
0 0 0 0 0 0 0 0 0 0 0 0 0 0 0 0 0 0 0 0 0 0 0 0 0 0 0 0 0 0 0 0 0 0 0 0 0 0 0 0 0 0 0 0
0 0 0 0 0 0 0 0 0 0 0 0 0 0 0 0 0 0 0 0 0 0 0 0 0 0 0 0 0 0 0 0 0 0 0 0 0 0 0 0 0 0 0 0
0 0 0 0 0 0 0 0 0 0 0 0 0 0 0 0 0 0 0 0 0 0 0 0 0 0 0 0 0 0 0 0 0 0 0 0 0 0 0 0 0 0 0 0
0 0 0 0 0 0 0 0 0 0 0 0 0 0 0 0 0 0 0 0 0 0 0 0 0 0 0 0 0 0 0 0 0 0 0 0 0 0 0 0 0 0 0 0
0 0 0 0 0 0 0 0 0 0 0 0 0 0 0 0 0 0 0 0 0 0 0 0 0 0 0 0 0 0 0 0 0 0 0 0 0 0 0 0 0 0 0 0
0 0 0 0 0 0 0 0 0 0 0 0 0 0 0 0 0 0 0 0 0 0 0 0 0 0 0 0 0 0 0 0 0 0 0 0 0 0 0 0 0 0 0 0
0 0 0 0 0 0 0 0 0 0 0 0 0 0 0 0 0 0 0 0 0 0 0 0 0 0 0 0 0 0 0 0 0 0 0 0 0 0 0 0 0 0 0 0
0 0 0 0 0 0 0 0 0 0 0 0 0 0 0 0 0 0 0 0 0 0 0 0 0 0 0 0 0 0 0 0 0 0 0 0 0 0 0 0 0 0 0 0
Wind_Speed
7 10 7 11 12 7 7 10 9 13 13 14 13 10 8 8 10 9 10 6 8 9 10 8 7 6 6 6 5 5 5 6 7 6 6 7 7 7 6 6 6 5 4 4
6 8 7 10 12 10 11 12 11 16 21 16 13 7 8 11 9 12 11 7 7 8 8 7 6 6 6 6 5 5 6 7 6 5 6 7 6 6 7 6 6 5 5 5
4 3 7 8 7 5 5 6 7 13 19 10 8 9 11 11 8 10 9 6 5 6 5 5 5 6 7 6 5 7 7 7 6 6 7 7 5 6 7 6 5 5 5 5
3 3 5 4 1 1 5 7 5 13 17 13 11 11 10 9 7 7 7 4 4 5 5 3 1 2 3 4 5 5 6 6 6 6 7 6 6 7 6 5 5 5 4 4
2 3 7 4 2 3 3 5 7 18 20 11 5 3 6 4 2 1 1 4 4 5 6 5 5 4 3 1 3 4 4 4 4 5 6 5 5 5 5 5 5 4 3 3
3 3 4 1 7 4 2 4 18 22 18 14 4 1 5 1 5 6 6 6 6 5 6 6 6 7 8 6 4 4 5 3 3 5 6 5 6 5 4 6 6 5 4 3
5 4 3 8 14 10 6 11 19 17 16 13 5 5 3 3 5 6 6 5 6 7 6 5 4 6 6 5 5 3 4 4 3 1 2 3 7 6 6 6 6 4 3 2
4 4 1 9 10 6 3 9 12 15 17 13 7 4 3 4 4 5 6 5 5 6 5 4 4 6 5 4 3 3 4 4 4 3 2 3 4 5 6 6 4 2 1 2
7 4 5 9 4 1 3 7 11 13 16 14 8 4 1 3 3 4 5 5 4 5 5 3 3 4 4 1 2 4 4 4 3 4 3 3 3 4 2 2 3 3 1 1
9 10 15 15 7 4 6 8 10 10 13 15 11 3 3 5 4 3 4 4 4 5 4 2 2 1 2 2 2 3 4 3 3 4 4 3 1 1 1 1 1 1 2 3
9 11 12 11 10 12 16 16 13 13 13 11 11 4 4 4 5 4 4 3 4 4 4 3 2 1 2 3 3 4 4 3 3 3 4 4 2 0 1 1 2 1 2 2
10 13 13 16 15 17 17 14 14 17 19 17 12 7 5 5 5 4 4 4 3 3 3 3 3 3 3 4 4 4 3 2 1 2 2 3 3 3 4 4 3 2 1 0
13 15 16 19 19 17 11 12 13 13 13 14 14 6 4 4 4 5 5 5 5 5 4 3 2 3 1 5 5 4 3 3 2 1 1 2 2 2 1 2 6 9 9 7
13 13 14 14 18 18 12 10 12 13 11 8 9 4 1 3 4 5 6 6 5 4 4 3 2 1 3 5 5 4 3 3 3 2 1 1 2 2 1 1 1 3 6 7
13 15 16 19 22 18 11 8 9 11 11 8 8 6 3 5 7 7 6 5 4 4 4 3 3 3 4 5 5 4 3 2 2 1 1 2 2 1 1 1 1 1 1 3
19 17 16 16 17 14 9 8 8 10 9 10 10 8 7 8 6 5 5 6 5 5 5 4 4 4 5 5 5 3 3 4 3 2 2 2 2 2 2 2 3 2 2 2
18 19 22 20 18 16 11 8 7 9 9 10 10 9 7 6 5 6 6 7 6 5 4 4 4 4 5 5 5 3 2 3 4 2 2 2 2 3 3 3 3 2 1 1
15 17 16 16 15 15 15 12 9 9 9 9 9 8 6 7 10 9 8 6 4 4 5 5 5 6 5 5 4 3 3 2 2 2 2 2 3 3 3 2 2 2 1 1
15 17 16 15 14 13 13 12 12 13 12 9 8 8 7 8 9 6 6 6 6 6 5 5 8 8 6 6 6 3 3 3 2 2 2 3 3 3 2 2 1 1 1 1
14 16 17 16 16 15 13 12 12 13 13 7 7 8 7 7 6 6 7 8 7 5 6 8 9 7 6 7 7 4 3 3 3 3 3 4 3 3 2 2 2 2 2 2
14 18 19 17 16 16 14 13 11 13 13 7 7 9 8 5 5 6 6 6 6 6 8 10 8 6 6 6 6 4 3 3 3 3 3 3 3 2 2 2 2 2 2 2
12 15 17 17 16 16 16 15 12 11 11 8 8 8 7 5 5 6 6 5 6 10 8 7 7 10 9 8 5 4 3 4 3 3 3 3 2 2 2 2 2 3 3 3
10 13 16 17 16 16 16 15 14 12 10 9 9 8 7 5 6 6 7 6 7 10 9 7 12 16 14 7 4 4 4 4 4 4 3 3 2 3 3 3 3 3 3 3
13 13 15 16 15 14 15 17 16 13 11 9 7 6 5 4 4 4 4 9 14 14 10 11 17 17 13 5 5 4 4 4 4 4 4 3 3 3 3 3 3 3 3 4
13 13 14 16 14 12 13 14 14 12 13 10 6 4 4 5 4 5 5 8 14 13 10 15 20 17 9 6 5 5 5 4 4 4 4 4 4 4 4 3 3 4 3 3
11 10 10 12 11 11 10 11 11 12 11 10 7 4 3 2 4 6 6 8 10 11 10 10 10 9 6 6 5 5 5 5 5 4 4 4 4 4 4 3 3 3 3 3
10 10 10 11 10 9 9 11 11 12 11 9 8 5 2 2 4 6 8 9 9 9 9 8 8 8 7 6 6 5 5 4 4 5 4 4 4 4 4 4 3 3 3 3
Wind_Direction
267 274 269 256 255 233 210 224 227 254 250 252 254 264 274 275 281 279 274 245 219 208 199 199 196 201 210 225 215 198 206 224 234 213 203 198 192 185 177 177 187 188 189 203
280 284 287 283 285 273 247 242 246 265 269 261 254 254 271 273 274 285 287 273 232 203 192 184 199 197 209 223 213 205 219 228 235 222 215 212 195 178 173 182 190 185 192 220
264 310 326 287 250 243 267 264 266 278 281 276 253 253 254 266 272 271 283 271 213 180 175 166 195 198 221 224 200 207 223 231 218 218 220 219 197 176 179 183 182 188 192 205
283 342 259 247 242 226 266 272 301 309 304 272 231 241 251 249 256 274 279 249 177 149 127 118 122 175 226 234 228 227 231 237 229 220 224 215 198 196 186 183 184 184 194 199
222 228 288 341 23 349 343 294 6 342 339 329 229 252 273 236 199 311 52 88 91 94 100 96 81 78 96 250 270 267 261 250 249 240 232 195 210 206 163 158 155 164 158 178
192 219 246 326 300 296 147 295 350 347 338 334 308 245 285 37 88 83 80 85 92 95 96 85 73 78 78 64 46 357 329 312 245 230 225 192 171 166 142 132 126 131 138 130
209 222 279 335 323 5 58 314 331 336 332 327 303 291 302 76 89 92 85 83 84 81 82 87 97 94 85 74 59 35 29 45 62 156 203 171 149 148 145 135 125 119 98 84
215 207 242 359 0 28 328 303 319 333 339 321 311 334 36 77 92 100 97 88 87 95 99 94 86 88 81 62 27 40 61 67 74 93 112 137 141 145 149 141 146 135 56 13
296 292 354 332 296 258 266 312 333 331 334 333 340 349 63 108 115 115 114 115 111 115 107 82 75 97 109 101 47 57 63 65 75 73 84 121 143 147 151 160 151 140 200 267
300 313 325 308 301 314 310 332 331 325 321 343 332 314 233 154 156 143 139 132 128 121 121 138 160 121 137 155 102 72 62 60 74 84 82 67 74 137 115 20 349 49 307 295
270 289 309 286 321 336 331 337 339 329 325 330 329 293 237 201 176 170 154 138 141 147 161 182 184 201 194 165 140 110 96 83 65 80 105 95 63 354 198 250 263 246 267 254
302 317 312 299 313 320 317 330 332 327 330 335 325 282 216 214 187 168 160 156 161 181 202 216 224 254 239 174 150 128 116 107 90 88 94 111 110 75 47 41 32 38 46 72
306 302 294 289 296 297 303 318 316 312 311 316 320 290 200 198 188 167 162 170 189 207 217 231 280 322 153 157 151 145 148 154 153 140 115 113 106 120 121 46 41 34 26 28
314 325 310 291 291 290 289 297 299 303 302 311 310 317 190 198 179 177 190 196 199 208 220 225 268 267 158 148 144 146 152 158 151 158 156 158 165 171 179 198 1 28 25 29
308 319 308 301 288 280 282 293 304 312 315 325 339 339 262 220 206 202 203 191 189 212 229 224 234 217 163 144 137 149 164 168 143 130 138 150 162 163 189 179 121 105 72 52
311 310 320 329 323 304 297 298 302 302 308 320 333 327 275 240 230 212 195 183 186 214 224 223 228 200 162 146 137 153 163 149 134 117 94 96 111 110 103 100 98 92 84 55
312 319 328 336 330 323 309 290 279 285 300 310 312 310 279 231 217 220 214 207 213 221 221 220 215 171 154 147 146 156 144 125 117 107 96 94 95 97 109 115 119 121 124 205
303 305 307 309 310 311 310 304 291 287 294 295 295 294 260 212 219 215 211 193 205 234 239 229 188 155 148 147 147 153 143 136 131 132 122 103 94 89 97 108 114 116 108 144
317 309 305 310 319 311 304 299 298 292 282 273 278 281 255 227 228 214 182 170 195 227 235 190 161 146 148 156 157 159 158 153 147 132 116 116 102 91 102 119 122 120 124 100
325 318 313 319 328 329 325 311 291 279 273 264 269 278 269 242 217 188 179 195 201 196 181 162 150 147 152 162 159 155 163 154 139 129 113 112 113 112 114 110 106 105 109 100
336 331 322 323 330 331 326 311 297 283 272 254 251 263 269 254 203 177 180 221 217 169 158 156 151 147 151 155 150 151 158 141 122 116 123 119 118 122 122 99 85 90 86 84
333 326 322 322 323 327 333 333 319 290 271 260 253 258 255 234 198 185 203 212 176 153 148 155 155 152 153 152 146 153 155 132 122 116 115 115 108 98 100 100 87 74 73 71
324 320 326 325 321 322 329 333 332 322 288 259 247 243 233 218 191 183 214 195 157 154 152 159 157 154 150 146 147 157 154 142 137 134 134 127 110 96 95 98 98 94 87 80
320 328 328 325 318 321 329 334 333 327 310 278 257 240 208 197 219 217 177 155 156 154 153 156 155 150 144 147 153 154 141 132 127 126 124 122 112 102 102 108 109 109 106 102
313 319 321 324 319 314 319 328 330 329 332 326 318 295 237 212 216 196 161 156 155 147 148 158 157 150 145 147 153 149 138 135 135 135 133 130 128 123 119 118 117 114 110 103
301 303 305 306 302 298 314 325 328 326 326 324 320 312 293 235 150 138 140 145 145 141 141 147 145 141 143 145 150 143 134 138 139 143 147 144 144 137 128 122 117 115 113 107
292 296 304 309 309 311 315 318 320 320 314 306 295 289 269 214 130 132 141 141 139 136 135 135 137 137 139 140 143 141 142 149 144 136 132 129 131 136 137 142 145 129 111 101